UAL2124 KPSP-KSFO

Flight info

Callsign UAL2124
Flight time N/A
Altitude 36000
Route YUCCA1 PMD AVE MAKRS SERFR SERFR4
Aircraft B736/M-SDE2E3FGHIRWXY/LB1

Departure

Time 2026-05-01 14:34
Airport Palm Springs International Airport (KPSP)

Arrival

Time N/A
Airport San Francisco International Airport (KSFO)
Time Latitude Longitude Altitude Speed Heading
2026-05-01 14:00 33.82104 -116.50749 426 ft 0 kts 37°
2026-05-01 14:23 33.82097 -116.50755 414 ft 1 kts 36°
2026-05-01 14:24 33.82089 -116.50762 418 ft 1 kts 36°
2026-05-01 14:24 33.82081 -116.50770 414 ft 1 kts 36°
2026-05-01 14:24 33.82073 -116.50777 416 ft 1 kts 36°
2026-05-01 14:24 33.82066 -116.50782 415 ft 0 kts 36°
2026-05-01 14:25 33.82066 -116.50783 415 ft 0 kts 36°
2026-05-01 14:25 33.82066 -116.50782 415 ft 0 kts 36°
2026-05-01 14:28 33.82064 -116.50769 418 ft 2 kts 122°
2026-05-01 14:28 33.82048 -116.50753 424 ft 4 kts 143°
2026-05-01 14:28 33.82022 -116.50729 422 ft 4 kts 142°
2026-05-01 14:28 33.82001 -116.50710 415 ft 4 kts 142°
2026-05-01 14:29 33.81981 -116.50691 421 ft 4 kts 137°
2026-05-01 14:29 33.81968 -116.50665 422 ft 4 kts 111°
2026-05-01 14:30 33.81967 -116.50525 426 ft 8 kts 90°
2026-05-01 14:30 33.81967 -116.50454 424 ft 10 kts 90°
2026-05-01 14:30 33.81966 -116.50347 415 ft 15 kts 90°
2026-05-01 14:31 33.81967 -116.50135 413 ft 11 kts 91°
2026-05-01 14:31 33.81945 -116.50061 413 ft 9 kts 139°
2026-05-01 14:31 33.81895 -116.50016 407 ft 9 kts 143°
2026-05-01 14:31 33.81852 -116.49962 411 ft 9 kts 110°
2026-05-01 14:32 33.81852 -116.49887 411 ft 9 kts 85°
2026-05-01 14:32 33.81856 -116.49841 411 ft 8 kts 72°
2026-05-01 14:32 33.81905 -116.49822 406 ft 0 kts 324°
2026-05-01 14:33 33.81906 -116.49823 406 ft 1 kts 324°
2026-05-01 14:34 33.82058 -116.49957 412 ft 69 kts 323°
2026-05-01 14:34 33.82677 -116.50509 425 ft 148 kts 323°
2026-05-01 14:34 33.83304 -116.51068 615 ft 178 kts 323°
2026-05-01 14:34 33.84312 -116.52026 1499 ft 186 kts 321°
2026-05-01 14:35 33.85349 -116.52955 2512 ft 190 kts 323°
2026-05-01 14:35 33.86481 -116.53919 3181 ft 211 kts 325°
2026-05-01 14:35 33.87785 -116.55010 3569 ft 244 kts 325°
2026-05-01 14:35 33.89189 -116.56156 4672 ft 243 kts 332°
2026-05-01 14:36 33.90817 -116.56681 5664 ft 250 kts
2026-05-01 14:36 33.92488 -116.56069 6490 ft 263 kts 33°
2026-05-01 14:36 33.93872 -116.54562 7360 ft 269 kts 46°
2026-05-01 14:36 33.95049 -116.52899 8781 ft 256 kts 47°
2026-05-01 14:37 33.96439 -116.51479 9443 ft 275 kts 26°
2026-05-01 14:37 33.98340 -116.50979 10134 ft 286 kts 357°
2026-05-01 14:37 34.00369 -116.51235 10782 ft 303 kts 353°
2026-05-01 14:37 34.02543 -116.51543 11170 ft 327 kts 354°
2026-05-01 14:38 34.04877 -116.51762 11703 ft 341 kts 357°
2026-05-01 14:38 34.07253 -116.51915 12626 ft 344 kts 357°
2026-05-01 14:38 34.09649 -116.52064 13561 ft 346 kts 356°
2026-05-01 14:38 34.11996 -116.52587 14349 ft 350 kts 343°
2026-05-01 14:39 34.14313 -116.53518 15220 ft 351 kts 341°
2026-05-01 14:39 34.16635 -116.54481 16061 ft 354 kts 340°
2026-05-01 14:39 34.18973 -116.55440 16862 ft 356 kts 340°
2026-05-01 14:39 34.21334 -116.56392 17651 ft 360 kts 340°
2026-05-01 14:40 34.23715 -116.57339 18435 ft 360 kts 340°
2026-05-01 14:40 34.26103 -116.58280 19068 ft 363 kts 340°
2026-05-01 14:40 34.28529 -116.59236 19652 ft 368 kts 340°
2026-05-01 14:40 34.30975 -116.60199 20310 ft 372 kts 340°
2026-05-01 14:41 34.33450 -116.61174 20946 ft 375 kts 340°
2026-05-01 14:41 34.35943 -116.62157 21567 ft 379 kts 339°
2026-05-01 14:41 34.38461 -116.63150 22175 ft 383 kts 339°
2026-05-01 14:41 34.41003 -116.64153 22769 ft 386 kts 339°
2026-05-01 14:42 34.43568 -116.65166 23398 ft 389 kts 339°
2026-05-01 14:42 34.46094 -116.66346 23923 ft 389 kts 328°
2026-05-01 14:42 34.48210 -116.68359 24447 ft 387 kts 312°
2026-05-01 14:42 34.49812 -116.70985 25016 ft 389 kts 301°
2026-05-01 14:43 34.50888 -116.73996 25537 ft 394 kts 287°
2026-05-01 14:43 34.51362 -116.77286 26071 ft 398 kts 280°
2026-05-01 14:43 34.51678 -116.80634 26577 ft 401 kts 279°
2026-05-01 14:43 34.51964 -116.84017 27053 ft 404 kts 279°
2026-05-01 14:44 34.52254 -116.87418 27522 ft 406 kts 279°
2026-05-01 14:44 34.52874 -116.94234 28397 ft 411 kts 279°
2026-05-01 14:44 34.53203 -116.97699 28808 ft 414 kts 280°
2026-05-01 14:45 34.53539 -117.01180 29164 ft 417 kts 279°
2026-05-01 14:45 34.54197 -117.08107 30504 ft 409 kts 279°
2026-05-01 14:45 34.54519 -117.11509 31134 ft 405 kts 279°
2026-05-01 14:46 34.54841 -117.14898 31647 ft 403 kts 279°
2026-05-01 14:46 34.55478 -117.21649 32648 ft 402 kts 279°
2026-05-01 14:46 34.55794 -117.25013 33136 ft 401 kts 279°
2026-05-01 14:47 34.56106 -117.28364 33675 ft 398 kts 278°
2026-05-01 14:47 34.56416 -117.31685 34178 ft 395 kts 278°
2026-05-01 14:47 34.56723 -117.34995 34576 ft 394 kts 278°
2026-05-01 14:48 34.57333 -117.41578 35325 ft 391 kts 278°
2026-05-01 14:48 34.57635 -117.44853 35704 ft 389 kts 278°
2026-05-01 14:48 34.58235 -117.51393 36051 ft 394 kts 277°
2026-05-01 14:49 34.59432 -117.64559 36016 ft 387 kts 277°
2026-05-01 14:50 34.60597 -117.77520 35993 ft 388 kts 277°
2026-05-01 14:51 34.61466 -117.87298 36034 ft 389 kts 277°
2026-05-01 14:52 34.62329 -117.97093 36052 ft 389 kts 277°
2026-05-01 14:53 34.63562 -118.06801 36044 ft 388 kts 291°
2026-05-01 14:53 34.66294 -118.12461 36043 ft 390 kts 301°
2026-05-01 14:54 34.69337 -118.17931 36037 ft 391 kts 302°
2026-05-01 14:54 34.72547 -118.23733 36056 ft 391 kts 302°
2026-05-01 14:55 34.75390 -118.28940 36047 ft 392 kts 301°
2026-05-01 14:55 34.78220 -118.34159 36030 ft 392 kts 301°
2026-05-01 14:56 34.81219 -118.39708 36006 ft 392 kts 301°
2026-05-01 14:56 34.84212 -118.45258 36006 ft 392 kts 301°
2026-05-01 14:57 34.87206 -118.50818 36039 ft 392 kts 301°
2026-05-01 14:57 34.91689 -118.59158 36040 ft 392 kts 301°
2026-05-01 14:58 34.94664 -118.64715 36032 ft 391 kts 301°
2026-05-01 14:58 34.97629 -118.70248 36031 ft 390 kts 301°
2026-05-01 14:59 35.00606 -118.75807 36030 ft 392 kts 301°
2026-05-01 14:59 35.03595 -118.81405 36029 ft 394 kts 301°
2026-05-01 15:00 35.08098 -118.89855 35993 ft 396 kts 301°
2026-05-01 15:01 35.11102 -118.95504 35993 ft 397 kts 301°
2026-05-01 15:01 35.14105 -119.01159 35988 ft 397 kts 300°
2026-05-01 15:02 35.17107 -119.06822 35989 ft 397 kts 300°
2026-05-01 15:02 35.20107 -119.12492 35998 ft 397 kts 301°
2026-05-01 15:03 35.23107 -119.18169 35986 ft 397 kts 301°
2026-05-01 15:03 35.26076 -119.23797 35991 ft 396 kts 301°
2026-05-01 15:04 35.29077 -119.29495 35985 ft 396 kts 300°
2026-05-01 15:04 35.32037 -119.35126 35991 ft 395 kts 300°
2026-05-01 15:05 35.35011 -119.40791 35994 ft 395 kts 300°
2026-05-01 15:05 35.37983 -119.46462 35989 ft 395 kts 300°
2026-05-01 15:06 35.40952 -119.52137 35995 ft 395 kts 300°
2026-05-01 15:06 35.43918 -119.57814 35993 ft 395 kts 300°
2026-05-01 15:07 35.46881 -119.63496 36002 ft 396 kts 300°
2026-05-01 15:07 35.49848 -119.69194 36004 ft 396 kts 300°
2026-05-01 15:08 35.52816 -119.74904 35996 ft 397 kts 300°
2026-05-01 15:08 35.55783 -119.80622 35997 ft 397 kts 300°
2026-05-01 15:09 35.58750 -119.86350 35996 ft 397 kts 300°
2026-05-01 15:09 35.61694 -119.92040 36002 ft 398 kts 300°
2026-05-01 15:10 35.64234 -119.98042 36016 ft 395 kts 288°
2026-05-01 15:10 35.65432 -120.04614 36013 ft 395 kts 277°
2026-05-01 15:10 35.65748 -120.07968 36007 ft 395 kts 277°
2026-05-01 15:11 35.66689 -120.18052 36015 ft 396 kts 277°
2026-05-01 15:12 35.67245 -120.23776 36041 ft 396 kts 277°
2026-05-01 15:12 35.68282 -120.33290 36059 ft 397 kts 283°
2026-05-01 15:13 35.71406 -120.42732 36083 ft 399 kts 294°
2026-05-01 15:14 35.73803 -120.48903 36091 ft 399 kts 293°
2026-05-01 15:14 35.77363 -120.58176 36096 ft 399 kts 293°
2026-05-01 15:15 35.82074 -120.70557 36094 ft 399 kts 293°
2026-05-01 15:16 35.86374 -120.81909 36039 ft 398 kts 293°
2026-05-01 15:18 35.92203 -120.97357 36034 ft 397 kts 293°
2026-05-01 15:19 35.96848 -121.09724 36060 ft 398 kts 293°
2026-05-01 15:19 36.00333 -121.19032 36055 ft 398 kts 293°
2026-05-01 15:20 36.03813 -121.28355 36054 ft 399 kts 292°
2026-05-01 15:21 36.06184 -121.34548 35897 ft 402 kts 299°
2026-05-01 15:21 36.07984 -121.37233 35319 ft 409 kts 314°
2026-05-01 15:21 36.10275 -121.39342 34592 ft 414 kts 323°
2026-05-01 15:21 36.12723 -121.41232 33835 ft 416 kts 324°
2026-05-01 15:22 36.17686 -121.44994 32094 ft 419 kts 324°
2026-05-01 15:22 36.20160 -121.46887 31299 ft 419 kts 324°
2026-05-01 15:22 36.22636 -121.48803 30454 ft 421 kts 325°
2026-05-01 15:23 36.25099 -121.50720 29788 ft 416 kts 325°
2026-05-01 15:23 36.27532 -121.52622 29106 ft 410 kts 325°
2026-05-01 15:23 36.29929 -121.54499 28473 ft 406 kts 325°
2026-05-01 15:23 36.32303 -121.56361 27860 ft 402 kts 325°
2026-05-01 15:24 36.34631 -121.58189 27236 ft 400 kts 325°
2026-05-01 15:24 36.36979 -121.60031 26661 ft 402 kts 325°
2026-05-01 15:24 36.39362 -121.61908 26043 ft 407 kts 325°
2026-05-01 15:24 36.41751 -121.63788 25429 ft 404 kts 326°
2026-05-01 15:25 36.44111 -121.65645 24820 ft 401 kts 326°
2026-05-01 15:25 36.46460 -121.67494 24209 ft 398 kts 326°
2026-05-01 15:25 36.48760 -121.69305 24009 ft 384 kts 326°
2026-05-01 15:25 36.50996 -121.71067 23547 ft 379 kts 326°
2026-05-01 15:26 36.53214 -121.72819 22959 ft 377 kts 326°
2026-05-01 15:26 36.55419 -121.74562 22400 ft 374 kts 326°
2026-05-01 15:26 36.57608 -121.76294 21855 ft 370 kts 326°
2026-05-01 15:26 36.59773 -121.78008 21340 ft 367 kts 326°
2026-05-01 15:27 36.61923 -121.79712 20826 ft 365 kts 327°
2026-05-01 15:27 36.64055 -121.81401 20317 ft 362 kts 327°
2026-05-01 15:27 36.66178 -121.83086 19826 ft 360 kts 327°
2026-05-01 15:28 36.70387 -121.86428 18835 ft 357 kts 327°
2026-05-01 15:28 36.72477 -121.88088 18347 ft 355 kts 327°
2026-05-01 15:28 36.74628 -121.89585 17769 ft 354 kts 339°
2026-05-01 15:29 36.79385 -121.90974 16746 ft 349 kts 347°
2026-05-01 15:29 36.81753 -121.91590 16233 ft 347 kts 347°
2026-05-01 15:29 36.86428 -121.92851 15268 ft 341 kts 347°
2026-05-01 15:30 36.91037 -121.94133 14324 ft 337 kts 346°
2026-05-01 15:31 36.99939 -121.97071 12437 ft 325 kts 342°
2026-05-01 15:31 37.04209 -121.98788 11442 ft 324 kts 342°
2026-05-01 15:32 37.08485 -122.00482 10553 ft 320 kts 342°
2026-05-01 15:32 37.12588 -122.02093 10257 ft 298 kts 343°
2026-05-01 15:33 37.18279 -122.04321 9613 ft 279 kts 343°
2026-05-01 15:34 37.23791 -122.06481 8633 ft 275 kts 343°